Showing default

OPS 9345 (IDSCS 23), 3288

Orbit data source: Space-Track

OPS 9345 (IDSCS 23), 3288 is a payload satellite owned by SAMSO (US) in GEO that was launched on Thu, 13 Jun 1968 UTC via a TITAN IIIC launch vehicle from the Air Force Eastern Test Range (AFETR). Payload-class satellites include a variety of spacecraft equipped with specific instruments for various scientific and technological missions. These include communications satellites like Starlink; space stations such as the ISS; scientific satellites like the Hubble; Earth observation satellites from companies like Planet Labs, Umbra, and HawkEye 360; GPS; miniature CubeSats for education and research; and military/defense satellites.

Not visible in the next 10 days
Identifier
3288, 1968-050E
Orbit
GEO
Country
Flag of USUS
Related business
Manufacturer
Philco-Ford
Mission
Non-operational spacecraft
Bus & Motor
IDCSP, Unknown motor
Mass
45 kg wet, 45 kg dry
Launch date (UTC)
1968-06-13 (58 years ago)
Launch vehicle
TITAN IIIC
Launch site
Air Force Eastern Test Range (AFETR)
Object type
Payload
Rocket body
Debris
Shape & HBR
Unknown
Radar Cross Section
Small (<0.1 m²)

Expand to show TLE details & history
Last TLE update: 1 day ago

TLE from 1 day ago
0 OPS 9345 (IDSCS 23)
1 03288U 68050E   25348.58408860 -.00000068  00000-0  00000-0 0  9996
2 03288   6.7219  54.5168 0035475 141.6807 223.4654  1.07478119137261
Epoch: 2025-12-14T14:01Z
TLE epoch observation values (Epoch: 2025-12-14T14:01:05.255Z)
Latitude
0.586°
Longitude
125.57989°
Altitude
33,983.543 km
Speed
3.139 km/s
True Right ascension
03h 57m 23s
True Declination
0° 35' 07"
Sunlit
Object was in daylight at epoch
Visualization orbit readout
Latitude
Unknown
Longitude
Unknown
Altitude
Unknown
Speed
Unknown
Apparent Right ascension
Unknown
Apparent Declination
Unknown
Sunlit
N/A
Visualization observer readout
Local Sidereal Time
13:25:41
Azimuth
Unknown
Elevation
Unknown
Doppler factor
Unknown
Orbital elements
Apogee altitude
34,024.052 km
Perigee altitude
33,738.412 km
Semi-major axis
40,259.369 km
Eccentricity
0.00355
Inclination
6.7219°
RAAN
54.5168°
Arg. of periapsis
141.6807°
True anomaly
223.18665°
Mean anomaly
223.4654°
Eccentric anomaly
223.32594°
Mean motion
0.26868 °/min
Orbital period
1,339.86 mins
BSTAR
0
Loading maneuver chart data...
Computing Atmospheric mass density...
Loading historical data...
Loading historical data...
Loading historical data...
Loading historical data...
Loading historical data...
Loading historical data...
Loading historical data...

Documentation

Showing up to 5 results
|